Location: Lafig�re
(44.4503°N, 4.0357°E)
Time: 15:47:29
(UTC+00:00)

BlueWalker 3 - Pass Details

Date: 09 December 2022
Orbit: 499 x 517 km, 53.2° (Epoch: 01 February)

Event Time Altitude Azimuth Distance (km) Brightness Sun altitude
Rises 18:48:03 0° 298° (WNW) 2,622 6.4 -28.3°
Reaches altitude 10° 18:50:25 10° 288° (WNW) 1,728 5.4 -28.8°
Enters shadow 18:52:57 28° 254° (WSW) 987 4.0 -29.2°
